Orbital Elements at Epoch 2459200.5 (2020-Dec-17.0) TDB
Reference: JPL 19 (heliocentric ecliptic J2000)
Element | Value | Uncertainty (1-sigma) | Units |
e | .1554387516387303 | 4.2083e-08 | |
a | 2.265285045391969 | 1.1637e-08 | au |
q | 1.913171965830357 | 9.6225e-08 | au |
i | 8.740918516470888 | 4.5189e-06 | deg |
node | 82.9385307014515 | 3.424e-05 | deg |
peri | 226.580188889814 | 3.8356e-05 | deg |
M | 126.1408212538824 | 1.9527e-05 | deg |
tp | 2458764.149108903731 (2019-Oct-07.64910890) | 6.6691e-05 | TDB |
period | 1245.325020347623 3.41 | 9.5957e-06 2.627e-08 | d yr |
n | .2890811588283265 | 2.2275e-09 | deg/d |
Q | 2.617398124953581 | 1.3445e-08 | au |
|
| | Orbit Determination Parameters
Additional Information
|